Location: Deuil
(48.9767°N, 2.3272°E)
Time: 10:40:50
(UTC+00:00)

Cosmos 2228 - Pass Details

Date: 07 June 2022
Orbit: 586 x 617 km, 82.5° (Epoch: 01 July)

Event Time Altitude Azimuth Distance (km) Brightness Sun altitude
Rises 23:38:38 0° 1° (N) 2,873 8.2 -18.2°
Reaches altitude 10° 23:41:18 10° 16° (NNE) 1,958 6.7 -18.2°
Maximum altitude 23:44:41 22° 68° (ENE) 1,330 5.0 -18.2°
Enters shadow 23:47:27 13° 114° (ESE) 1,765 5.1 -18.2°
